Regional Weather Roundup
Issued by NWS Green Bay, WI

Home | Current Version | Previous Version | Graphics & Text | Print | Product List | Glossary Off
Versions: 1 2 3 4 5 6 7 8 9 10 11 12 13 14 15 16 17 18 19 20 21 22 23 24 25 26 27 28 29 30 31 32 33 34 35 36 37 38 39 40 41 42 43 44 45 46 47 48 49 50

000
ASUS43 KGRB 200810
RWRGRB

NORTH-CENTRAL AND NORTHEAST WISCONSIN REGIONAL WEATHER ROUNDUP
NATIONAL WEATHER SERVICE GREEN BAY WI
300 AM CDT WED AUG 20 2014

WIZ005-009-010>012-018-019-200900-
NORTH CENTRAL WISCONSIN

CITY           SKY/WX    TMP DP  RH WIND       PRES   REMARKS
IRONWOOD       CLOUDY    55  55 100 N3        29.80S VSB 1
MANITOWISH WTR CLOUDY    57  57  99 N5        29.81S
ARBOR VITAE    CLOUDY    59  57  91 N8        29.81R
EAGLE RIVER    CLOUDY    58  58  98 N7        29.80S
LAND O LAKES   CLOUDY    57  56  95 NW5       29.82R
RHINELANDER    CLOUDY    59  57  93 CALM      29.81R
PHILLIPS       CLOUDY    59  58  96 NW5       29.81S
ANTIGO         CLOUDY    59  58  97 CALM      29.80S
TOMAHAWK       CLOUDY    57  56  97 NW6       29.81S
MERRILL        PTCLDY    57  57 100 CALM      29.80S
$$

WIZ013-073-200900-
NORTHEAST WISCONSIN

CITY           SKY/WX    TMP DP  RH WIND       PRES   REMARKS
IRON MOUNTAIN  CLOUDY    60  57  89 NW9       29.76S
MARINETTE      CLOUDY    63  59  88 NW3       29.75R
OCONTO         MOCLDY    59  59 100 CALM      29.76S
$$

WIZ017-030-035>037-045-200900-
CENTRAL WISCONSIN

CITY           SKY/WX    TMP DP  RH WIND       PRES   REMARKS
MEDFORD        CLOUDY    58  58  99 N5        29.81S
WAUSAU         PTCLDY    61  59  93 W6        29.79R
MOSINEE        CLEAR     59  59 100 CALM      29.80S
MARSHFIELD     FOG       60  59  96 W3        29.81R VSB 1/4
WISC RAPIDS    PTCLDY    60  59  96 CALM      29.81R
STEVENS POINT  MOCLDY    57  57 100 CALM      29.80R FOG
WAUPACA        CLEAR     61  60  94 CALM      29.79R
SHAWANO        PTCLDY    62  60  94 NW5       29.79R
CLINTONVILLE   MOCLDY    59  59 100 CALM      29.78S
$$

WIZ038-039-048-051-200900-
FOX VALLEY

CITY           SKY/WX    TMP DP  RH WIND       PRES   REMARKS
NWS GREEN BAY  CLEAR     61  60  97 CALM      29.78R
APPLETON       CLEAR     61  59  94 NW5       29.79R
OSHKOSH        MOCLDY    63  62  97 CALM      29.78S
FOND DU LAC    CLEAR     62  59  90 SW3       29.79R
$$

WIZ022-050-052-200900-
EAST CENTRAL WISCONSIN

CITY           SKY/WX    TMP DP  RH WIND       PRES   REMARKS
STURGEON BAY   CLEAR     63  59  88 NW6       29.77R
MANITOWOC      MOCLDY    65  63  93 W5        29.77R
SHEBOYGAN      PTCLDY    64  62  93 W5        29.78R
$$

LMZ563-521-522-541>543-200900-
LAKESHORE

STATION/POSITION TIME  TEMP    WIND        PRES    VSBY  WAVE
                       AIR SEA DIR/SP/G                  HT/PER
                 (UTC) (F)     (DEG/KT/KT) (MB)    (MI)  (FT/S)
SHEBOYGAN LKSHOR 0800   66 67  300/  4/  6 1008.2R
KEWAUNEE LKSHORE 0800   64      CALM  /  1 1007.0R
NORTHPORT PIER   0800   64     330/ 10/ 11 1007.5R
N MID LAKE BUOY  0800   62 62  290/ 12/ 14 1005.8S         1/ 5
S GREEN BAY BUOY 0800   66     VRB 10      1009.0R
SISTER BAY LKSHO 0800   64     350/ 11/ 12   N/A
CHAMBERS ISLAND  0800   63     300/  7/  8 1007.8S
MENOMINEE LKSHOR 0800   63     290/  6/  7 1008.1F
$$


USA.gov is the U.S. government's official web portal to all federal, state and local government web resources and services.